DateTimeUTC,F1_A11,F1_S11,BsB_S11,BsG_S11,BsR_S11,BbsB_S11,BbsG_S11,BbsR_S11,BaB_A11,BaG_A11,BaR_A11,Tu_S11,T_S11,Uu_S11,U_S11,P_S11,T1_A11
2021-09-06T19:00:00Z,00000200,21000000,,,,,,,-000.28,0000.06,0000.29,18.9,25.9,00.3,00.2,0662.9,31.1
2021-09-06T19:01:00Z,00000200,21000000,,,,,,,0000.23,0000.31,-000.14,18.9,25.9,00.3,00.2,0662.9,31.1
2021-09-06T19:02:00Z,00000200,21000000,,,,,,,0000.06,0000.00,0000.10,18.9,25.9,00.3,00.2,0662.9,31.1
2021-09-06T19:03:00Z,00000200,61000000,,,,,,,-000.04,0000.04,0000.07,18.9,25.9,00.3,00.2,0662.9,31.1
2021-09-06T19:04:00Z,00000200,41000000,0000.53,0000.56,0000.56,0000.41,0000.26,0000.09,0000.22,0000.05,0000.08,19.0,25.7,00.5,00.3,0663.8,31.1
2021-09-06T19:05:00Z,00000200,01000000,0000.42,0000.03,0000.14,0000.28,-000.05,0000.21,0000.23,-000.10,-000.35,19.1,25.6,00.5,00.4,0663.9,31.1
2021-09-06T19:06:00Z,00000200,01000000,0000.20,0000.19,0000.10,0000.06,-000.02,-000.09,0000.16,0000.12,0000.70,19.1,25.6,00.6,00.4,0663.9,31.1
2021-09-06T19:07:00Z,00000200,01000000,0000.98,0000.55,0000.31,0000.11,0000.06,-000.07,0000.21,0000.20,-000.07,19.0,25.6,00.6,00.4,0663.9,31.1
2021-09-06T19:08:00Z,00000200,01000000,-000.01,0000.14,0000.20,-000.43,0000.10,-000.01,-000.16,0000.35,0000.04,19.0,25.6,00.7,00.5,0663.9,31.1
2021-09-06T19:09:00Z,00000200,01000000,-000.13,0000.31,0000.03,0000.16,0000.16,0000.15,0000.19,-000.25,0000.17,19.0,25.5,00.7,00.5,0663.8,31.1
2021-09-06T19:10:00Z,00000200,01000000,0000.91,0000.03,0000.24,-000.07,0000.16,0000.11,0000.09,-000.27,0000.09,19.0,25.6,00.9,00.6,0663.8,31.1
2021-09-06T19:11:00Z,00000200,01000000,0000.12,0000.49,0000.08,0000.07,0000.22,-000.03,0000.38,0001.02,0000.06,19.0,25.5,00.8,00.5,0663.8,31.1
2021-09-06T19:12:00Z,00000200,01000000,0000.75,0000.53,0000.40,-000.36,-000.08,-000.03,0000.14,-000.15,0000.04,19.0,25.5,00.8,00.6,0663.8,31.1
2021-09-06T19:13:00Z,00000200,01000000,-000.12,0000.34,0000.57,-000.35,0000.19,-000.13,0000.19,-000.05,0000.20,19.1,25.6,00.9,00.6,0663.8,31.1
2021-09-06T19:14:00Z,00000200,01000000,0000.59,0000.15,0000.10,0000.07,0000.26,-000.12,0000.07,0000.30,0000.09,19.1,25.6,01.0,00.7,0663.8,31.1
2021-09-06T19:15:00Z,00000200,01000000,0000.64,0000.44,0000.29,0000.01,0000.24,-000.31,0000.38,-000.07,-000.01,19.1,25.6,01.0,00.6,0663.8,31.1
2021-09-06T19:16:00Z,00000200,01000000,0000.26,0000.59,0000.46,0000.24,0000.34,0000.13,-000.32,0000.05,-000.16,19.1,25.6,01.0,00.7,0663.8,31.1
2021-09-06T19:17:00Z,00000200,01000000,-000.10,0000.41,0000.44,0000.04,0000.17,-000.03,0000.24,0000.54,0000.23,19.1,25.6,01.0,00.7,0663.8,31.1
2021-09-06T19:18:00Z,00000200,01000000,-000.01,0000.28,0000.53,-000.23,-000.03,0000.16,0000.12,-000.35,0000.39,19.1,25.6,01.0,00.7,0663.8,31.1
2021-09-06T19:19:00Z,00000200,01000000,0000.07,0000.41,0000.06,0000.30,0000.16,0000.01,0000.11,0000.17,-000.20,19.1,25.5,01.1,00.7,0663.8,31.1
2021-09-06T19:20:00Z,00000200,01000000,0000.11,0000.19,-000.01,-000.01,0000.33,-000.31,0000.17,0000.22,-000.11,19.0,25.5,01.0,00.7,0663.8,31.1
2021-09-06T19:21:00Z,00000200,01000000,0000.10,0000.32,0000.17,-000.43,0000.14,0000.11,-000.15,-000.03,0000.10,19.0,25.5,01.1,00.7,0663.8,31.1
2021-09-06T19:22:00Z,00000200,01000000,0001.13,0000.25,0000.24,0000.00,0000.13,-000.22,0000.15,0000.11,-000.02,19.0,25.5,01.0,00.7,0663.8,31.1
2021-09-06T19:23:00Z,00000200,01000000,0000.23,0000.49,0000.23,0000.17,0000.29,-000.30,0000.11,0000.25,0000.17,19.0,25.5,01.1,00.7,0663.8,31.1
2021-09-06T19:24:00Z,00000200,01000000,0000.41,-000.02,0000.06,0000.20,-000.04,-000.02,0000.33,0000.05,0000.39,19.0,25.5,01.1,00.7,0663.8,31.0
2021-09-06T19:25:00Z,00000200,01000000,0000.77,0000.51,0000.10,0000.23,0000.02,0000.21,0000.06,0000.15,-000.07,18.9,25.4,01.1,00.7,0663.8,31.0
2021-09-06T19:26:00Z,00000200,01000000,0000.54,0000.13,0000.31,0000.29,0000.01,-000.30,0000.26,0000.09,0000.07,18.9,25.4,01.2,00.8,0663.8,31.0
2021-09-06T19:27:00Z,00000200,01000000,0000.69,0000.26,0000.16,0000.07,-000.03,0000.04,-000.25,0000.09,0000.12,19.0,25.4,01.2,00.8,0663.8,31.1
2021-09-06T19:28:00Z,00000200,01000000,0000.09,0000.17,0000.34,0000.13,0000.07,0000.19,0000.07,-000.15,-000.21,19.0,25.4,01.2,00.8,0663.8,31.1
2021-09-06T19:29:00Z,00000200,01000000,0000.60,0000.05,0000.37,0000.04,0000.42,-000.32,0000.01,0000.18,0000.09,19.0,25.5,01.1,00.7,0663.8,31.1
2021-09-06T19:30:00Z,00000200,01000000,0000.51,0000.29,0000.35,-000.19,0000.06,0000.25,0000.38,0000.17,0000.42,19.0,25.5,01.2,00.8,0663.8,31.1
2021-09-06T19:31:00Z,00000200,01000000,0000.39,0000.06,0000.62,-000.08,-000.06,-000.27,0000.14,-000.25,-000.09,19.0,25.5,01.2,00.8,0663.8,31.1
2021-09-06T19:32:00Z,00000200,01000000,-000.34,0000.48,0000.10,-000.03,0000.17,-000.04,-000.34,0000.55,-000.23,19.0,25.5,01.1,00.8,0663.8,31.1
2021-09-06T19:33:00Z,00000200,01000000,0000.78,0000.62,0000.24,-000.46,0000.34,-000.33,0000.12,-000.20,0000.04,19.0,25.4,01.1,00.7,0663.8,31.1
2021-09-06T19:34:00Z,00000200,01000000,0000.37,0000.37,0000.55,-000.16,0000.01,0000.17,0000.09,-000.12,0000.49,19.0,25.4,01.2,00.8,0663.8,31.1
2021-09-06T19:35:00Z,00000200,01000000,0000.49,0000.45,0000.35,0000.38,0000.21,-000.09,0000.09,0000.07,-000.43,19.0,25.4,01.2,00.8,0663.8,31.1
2021-09-06T19:36:00Z,00000200,01000000,-000.37,0000.37,0000.69,-000.02,0000.19,0000.18,-000.05,0000.36,0000.31,18.9,25.4,01.0,00.7,0663.8,31.1
2021-09-06T19:37:00Z,00000200,01000000,0000.96,0000.47,0000.47,0000.09,-000.03,0000.09,0000.46,-000.43,-000.15,18.9,25.4,01.1,00.8,0663.8,31.0
2021-09-06T19:38:00Z,00000200,01000000,0000.48,0000.69,0000.18,0000.38,0000.15,-000.16,-000.15,0000.29,0000.27,18.9,25.4,01.1,00.8,0663.8,31.0
2021-09-06T19:39:00Z,00000200,01000000,0001.02,0000.25,0000.33,0000.04,0000.20,0000.26,-000.01,-000.24,0000.22,18.9,25.3,01.1,00.7,0663.8,31.0
2021-09-06T19:40:00Z,00000200,01000000,0000.34,0000.17,0000.18,0000.16,0000.14,-000.12,0000.14,0000.57,0000.04,18.9,25.3,01.1,00.7,0663.8,31.0
2021-09-06T19:41:00Z,00000200,01000000,0000.63,0000.29,0000.18,0000.23,0000.09,-000.21,0000.31,0000.33,0000.13,18.8,25.3,01.2,00.8,0663.8,31.0
2021-09-06T19:42:00Z,00000200,01000000,0000.48,0000.44,0000.57,-000.05,0000.11,0000.10,-000.10,-000.18,0000.14,18.9,25.3,01.0,00.7,0663.8,31.1
2021-09-06T19:43:00Z,00000200,01000000,0000.73,0000.41,0000.37,-000.11,0000.12,0000.21,0000.01,0000.30,-000.16,19.0,25.3,01.1,00.8,0663.9,31.1
2021-09-06T19:44:00Z,00000200,01000000,0000.22,0000.30,0000.73,0000.39,0000.09,-000.02,-000.10,-000.10,-000.13,19.0,25.4,01.1,00.7,0663.9,31.1
2021-09-06T19:45:00Z,00000200,01000000,0000.01,0000.37,0000.33,0000.25,-000.11,0000.09,0000.57,-000.10,0000.15,19.0,25.4,01.1,00.7,0663.9,31.1
2021-09-06T19:46:00Z,00000200,01000000,0000.07,0000.48,0000.68,0000.08,0000.17,-000.05,0000.03,-000.03,0000.07,19.0,25.4,01.1,00.8,0663.9,31.1
2021-09-06T19:47:00Z,00000200,01000000,-000.10,0000.26,0000.58,0000.32,-000.08,-000.10,-000.36,-000.07,-000.07,19.0,25.4,01.0,00.6,0663.9,31.1
2021-09-06T19:48:00Z,00000200,01000000,0000.92,0000.22,0000.13,-000.09,0000.18,-000.09,0000.19,0000.17,-000.08,19.0,25.4,01.1,00.7,0663.9,31.1
2021-09-06T19:49:00Z,00000200,01000000,0000.25,0000.37,0000.27,0000.55,-000.06,0000.28,-000.03,-000.04,0000.36,18.9,25.4,01.0,00.7,0663.9,31.1
2021-09-06T19:50:00Z,00000200,01000000,-000.14,0000.04,0000.27,-000.48,0000.14,0000.18,0000.34,0000.02,0000.01,18.9,25.3,01.1,00.7,0663.9,31.1
2021-09-06T19:51:00Z,00000200,01000000,-000.14,0000.48,0000.42,-000.34,0000.21,-000.01,-000.16,0000.14,0000.14,18.9,25.3,01.1,00.7,0663.9,31.0
2021-09-06T19:52:00Z,00000200,01000000,0000.53,0000.23,-000.19,0000.67,0000.05,-000.41,-000.04,0000.31,-000.07,18.9,25.3,01.1,00.7,0663.9,31.1
2021-09-06T19:53:00Z,00000200,01000000,0000.09,0000.47,0000.35,0000.48,0000.00,0000.06,0000.33,0000.04,0000.04,18.9,25.3,01.0,00.7,0663.9,31.0
2021-09-06T19:54:00Z,00000200,01000000,0000.27,0000.06,0000.49,0000.45,0000.01,-000.26,-000.16,-000.06,-000.17,18.8,25.3,01.1,00.7,0663.9,31.0
2021-09-06T19:55:00Z,00000200,01000000,0001.53,0000.38,-000.01,-000.29,0000.56,-000.11,0000.04,0000.01,0000.00,18.8,25.3,01.0,00.7,0663.9,31.0
2021-09-06T19:56:00Z,00000200,01000000,0001.06,0000.21,0000.11,-000.03,0000.10,0000.35,0000.16,-000.08,0000.34,18.8,25.2,01.0,00.6,0663.9,31.1
2021-09-06T19:57:00Z,00000200,41000000,,,,,,,0000.07,0000.62,0000.07,18.8,25.3,00.9,00.6,0663.9,31.0
2021-09-06T19:58:00Z,00000200,61000000,,,,,,,-000.40,-000.52,0000.06,18.6,25.4,00.6,00.4,0663.0,31.0
2021-09-06T19:59:00Z,00000200,21000000,,,,,,,0000.01,-000.15,-000.32,18.6,25.5,00.6,00.4,0663.0,31.1
